STARLINK-11464, 62473

Orbit data source: Space-Track

STARLINK-11464, 62473 is a payload satellite owned by SpaceX/Seattle (US) in LEO that was launched on Tue, 31 Dec 2024 UTC via an FALCON 9 launch vehicle from the Air Force Eastern Test Range (AFETR). Payload-class satellites include a variety of spacecraft equipped with specific instruments for various scientific and technological missions. These include communications satellites like Starlink; space stations such as the ISS; scientific satellites like the Hubble; Earth observation satellites from companies like Planet Labs, Umbra, and HawkEye 360; GPS; miniature CubeSats for education and research; and military/defense satellites.

Loading next visibility...
Identifier
62473, 2024-254M
Orbit
LEO
Country
Flag of USUS
Related business
Manufacturer
SpaceX/Seattle
Mission
Operational Commercial Communications
Bus & Motor
STARLINK V2MD, Unknown motor
Mass
960 kg wet, ~910 kg dry
Launch date (UTC)
2024-12-31 (2 years ago)
Launch vehicle
FALCON 9
Launch site
Air Force Eastern Test Range (AFETR)
Object type
Payload
Rocket body
Debris
Shape & HBR
Box + 2 Pan, 18.1 m
Radar Cross Section
36.964 m², Large (>1 m²)

Expand to show TLE details & history
Last TLE update: 15 hours ago

TLE from 15 hours ago
0 STARLINK-11464
1 62473U 24254M   26257.94035490  .00224197  00000-0  17027-2 0  9999
2 62473  43.0002 162.3995 0002978 289.3016  70.7530 15.70856875 99218
Epoch: 2026-09-14T22:34Z
TLE epoch observation values (Epoch: 2026-09-14T22:34:06.663Z)
Latitude
0.00002°
Longitude
-170.04168°
Altitude
355.558 km
Speed
7.698 km/s
True Right ascension
10h 49m 35s
True Declination
0° 00' 00"
Sunlit
Object was in daylight at epoch
Visualization orbit readout
Latitude
Unknown
Longitude
Unknown
Altitude
Unknown
Speed
Unknown
Apparent Right ascension
Unknown
Apparent Declination
Unknown
Sunlit
N/A
Visualization observer readout
Local Sidereal Time
05:46:07
Azimuth
Unknown
Elevation
Unknown
Doppler factor
Unknown
Orbital elements
Apogee altitude
360.435 km
Perigee altitude
356.422 km
Semi-major axis
6,736.565 km
Eccentricity
0.0003
Inclination
43.0002°
RAAN
162.3995°
Arg. of periapsis
289.3016°
True anomaly
70.78522°
Mean anomaly
70.753°
Eccentric anomaly
70.76911°
Mean motion
3.92541 °/min
Orbital period
91.71 mins
BSTAR
0.0017027
Loading maneuver chart data...
Computing Atmospheric mass density...
Loading historical data...
Loading historical data...
Loading historical data...
Loading historical data...
Loading historical data...
Loading historical data...
Loading historical data...

Documentation

Showing up to 5 results
|